Regional Weather Roundup
Issued by NWS Wakefield, VA

Home | Current Version | Previous Version | Text Only | Print | Product List | Glossary On
Versions: 1 2 3 4 5 6 7 8 9 10 11 12 13 14 15 16 17 18 19 20 21 22 23 24 25 26 27 28 29 30 31 32 33 34 35 36 37 38 39 40 41 42 43 44 45 46 47 48 49 50
000
ASUS41 KAKQ 012315
RWRAKQ

REGIONAL WEATHER ROUNDUP
NATIONAL WEATHER SERVICE WAKEFIELD VA
700 PM EDT SAT AUG 01 2015

Note: "fair" indicates few or no clouds below 12,000 feet with no
significant weather and/or obstructions to visibility. * = Denotes
station may not report precipitation (e.g., rain,snow,etc.),
thunder or fog.

VAZ042-051-052>054-056-020000-
NORTHERN VIRGINIA

CITY           SKY/WX    TMP DP  RH WIND       PRES   REMARKS
WASH NATIONAL  MOSUNNY   90  63  40 N9        29.84S
DULLES         SUNNY     86  58  38 NW10      29.85S
FORT BELVOIR   MOSUNNY   84  69  60 SE5       29.84S
QUANTICO       NOT AVBL
FREDERICKSBRG* SUNNY     88  65  46 N5        29.83S
STAFFORD*      MOSUNNY   81  70  71 CALM      29.89R
WARRENTON      MOSUNNY   81  75  80 CALM      29.85S
CULPEPER*      PTSUNNY   81  73  77 CALM      29.86S
MANASSAS*      SUNNY     84  66  54 SW3       29.85S
LEESBURG*      SUNNY     86  63  45 NW8G16    29.87S
WINCHESTER     MOSUNNY   86  52  30 W10       29.88S
FRONT ROYAL*   FAIR      82  57  42 NW5       29.87S
LURAY*         FAIR      88  55  33 NW10G16   29.89S
$$

VAZ048-049-060>072-079>083-020000-
CENTRAL AND SOUTH CENTRAL VIRGINIA

CITY           SKY/WX    TMP DP  RH WIND       PRES   REMARKS
RICHMOND       MOSUNNY   88  63  43 SW7       29.84S
CHESTERFIELD*  MOCLDY    90  61  37 SW5       29.86
PETERSBURG*    SUNNY     88  71  56 SW3       29.85S
HANOVER        SUNNY     86  64  47 W7        29.86S
TAPPAHANNOCK*  SUNNY     86  72  64 CALM      29.85R
QUINTON*       FAIR      88  65  46 CALM      29.83S
CHARLOTTSVILLE SUNNY     85  63  47 CALM      29.87S
GORDONSVILLE*  FAIR      86  66  51 CALM      29.85S
ORANGE*        MOSUNNY   86  68  54 CALM      29.88R
LOUISA*        SUNNY     88  64  45 SW3       29.85S
BUMPASS*       FAIR      85  67  54 W3        29.85S
FARMVILLE*     SUNNY     89  56  32 W6        29.86S
CREWE*         FAIR     N/A N/A N/A CALM      29.86S
FORT PICKETT*  FAIR      88  61  39 W5        29.87S
CHASE CITY*    FAIR      89  66  47 W3        29.87S
CLARKSVILLE*   FAIR      88  63  42 CALM      29.87S
SOUTH HILL*    SUNNY     86  66  50 SW3       29.92S
LAWRENCEVILLE* FAIR      88  63  42 CALM      29.86S
EMPORIA*       SUNNY     88  63  42 SW5       29.87S
$$

VAZ088>098-020000-
SOUTHEAST VIRGINIA

CITY           SKY/WX    TMP DP  RH WIND       PRES   REMARKS
NORFOLK        SUNNY     87  70  56 E6        29.85R
VIRGINIA BEACH MOSUNNY   87  68  52 S12       29.85R
NORFOLK NAVAL  MOSUNNY   87  70  56 CALM      29.86S
WEST POINT*    SUNNY     90  61  37 S5        29.85S
SALUDA*        FAIR      87  67  51 S3        29.84S
NEWPORT NEWS   SUNNY     88  61  40 W9        29.85S
LANGLEY AFB    SUNNY     87  64  46 W6        29.84
FORT EUSTIS    SUNNY     89  59  36 W5        29.83S
WILLIAMSBURG*  SUNNY     91  66  43 CALM      29.86S
HR EXEC AP*    FAIR      84  70  61 W3        29.86S
FRANKLIN*      SUNNY     89  62  41 CALM      29.85S
WAKEFIELD      SUNNY     90  63  40 CALM      29.85S
$$

VAZ020-022-025-037-045-020000-
WEST CENTRAL AND SOUTHWEST VIRGINIA

CITY           SKY/WX    TMP DP  RH WIND       PRES   REMARKS
STAUNTON*      SUNNY     87  52  29 NW9       29.93S
WAYNESBORO*    FAIR      82  57  42 W5        29.92F
HOT SPRINGS VA SUNNY     71  51  47 W9        30.06S
LYNCHBURG      MOSUNNY   83  57  41 W3        29.92S
DANVILLE       SUNNY     89  56  32 NW8       29.89S
SOUTH BOSTON*  FAIR      87  62  43 SW5       29.87S
MARTINSVILLE   SUNNY     88  53  30 N6        29.93S
ROANOKE        MOSUNNY   85  55  35 NW13      29.94S
BLACKSBURG     SUNNY     80  57  45 NW8       30.02S
DUBLIN*          N/A     80  55  41 NW6       30.01S
MARION*        SUNNY     78  58  49 NW6       30.05S
HILLSVILLE*    MOSUNNY   79  54  42 NW8       30.02F
RICHLANDS*     FAIR      76  60  56 NW5       30.04F
WISE*          MOSUNNY   79  54  41 W6        30.06S
ABINGDON*      MOSUNNY   83  54  36 NW8       30.01F
$$

MDZ021>025-VAZ099-100-020000-
SOUTHERN MARYLAND AND THE DELMARVA PENINSULA

CITY           SKY/WX    TMP DP  RH WIND       PRES   REMARKS
PATUXENT RIVER SUNNY     86  66  51 SW5       29.83S
BAY BRIDGE APT   N/A     82  61  47 CALM      29.83S
LEONARDTOWN    MOSUNNY   81  64  57 CALM      29.85S
DOVER          MOSUNNY   85  65  51 W8        29.81S
GEORGETOWN     SUNNY     87  62  43 W8        29.84R
EASTON         SUNNY     86  68  54 NW6       29.87S
CAMBRIDGE      SUNNY     86  63  45 N5        29.83S
SALISBURY      SUNNY     85  66  53 SW6       29.84R
OCEAN CITY     MOSUNNY   85  72  65 SW9       29.84R
WALLOPS ISLAND SUNNY     82  73  74 S16       29.85S
ACCOMACK*      SUNNY     82  82 100 S10       29.85S HX  97
$$

NCZ012>017-030>032-020000-
NORTH CENTRAL AND EASTERN NORTH CAROLINA

CITY           SKY/WX    TMP DP  RH WIND       PRES   REMARKS
ROANOKE RAPIDS FAIR      88  59  37 NW6       29.86R
RALEIGH        MOSUNNY   89  60  37 E6        29.88S
ELIZABETH CITY SUNNY     86  70  58 SE7       29.86S
AHOSKIE*       MOSUNNY   87  61  42 CALM      29.86R
EDENTON*         N/A     87  72  60 S8        29.86R
CURRITUCK*     SUNNY     87  64  46 CALM      29.87R
KILL DEVIL HLS SUNNY     86  71  59 S5        29.86S
MANTEO         SUNNY     83  73  72 S10       29.87F
CAPE HATTERAS  MOSUNNY   82  75  79 SW8       29.88F
TARBORO*         N/A     88  65  46 CALM      29.86S
GOLDSBORO      SUNNY     92  64  39 NW6       29.84S
WASHINGTON     SUNNY     89  64  43 SW5       29.86S
GREENVILLE     SUNNY     90  63  40 W6        29.88S
NEW BERN       SUNNY     87  75  67 S10       29.87S HX  96
WILMINGTON     PTSUNNY   82  71  69 S5        29.88S
$$

VAZ048-020000-
ELSEWHERE

CITY           SKY/WX    TMP DP  RH WIND       PRES   REMARKS
HARRISBURG PA  MOSUNNY   84  57  39 W8        29.83S
BALTIMORE      MOSUNNY   87  58  37 NW7       29.83S
ANNAPOLIS      CLOUDY    83  70  64 S3        29.83S
ANDREWS AFB    MOSUNNY   85  64  48 W8        29.83F
PHILADELPHIA   MOSUNNY   88  54  31 W16       29.82S
HENDERSON NC   SUNNY     87  55  32 CALM      29.88F
GREENSBORO     MOSUNNY   89  50  26 NW9       29.90F
ROCKY MOUNT    SUNNY     93  56  28 W9        29.86S
$$

VAZ100-020000-
MARINE

STATION/POSITION TIME  TEMP    WIND        PRES    WAVE   SWELL
                       AIR SEA DIR/SP/G            HT/PER HT/PER
                 (UTC) (F)     (DEG/KT/KT) (MB)    (FT/S) (FT/S)
BRANDYWINE LGT   2200   83 79  320/  7/ 10 1010.1F
CAPE MAY NJ      2200   87 80  320/  5/  8 1009.6F
LEWES DE         2200   81 75   80/  4/  4 1009.9S
15NM E FENWICK I 2250   81 80  200/ 17/ 19 1010.2R   4/ 5   2/ 8
OCEAN-CITY-INLET 2200   79 80  210/ 15/ 19 1009.4R
WACHAPREAGUE VA  2200   84 87  200/ 12/ 15 1010.8S
THOMAS POINT MD  2300   83 81  180/  2/  2 1010.6F
GOOSES REEF MD   2300   85 84   60/  4/  4 1011.2F
COVE POINT MD    2200   88     310/  5/  7 1010.8F
SOLOMONS ISLAND  2200      83                N/A
BISHOPS HEAD MD  2200   86 85  190/  8/ 10 1009.3F
PINEY POINT MD   2200          260/  3/  5   N/A
POTOMAC MD       2300   89     240/  6/  8 1008.9S
CAMBRIDGE MD     2200   85 85  320/  5/  7 1009.4S
LEWISETTA VA     2200   89 85  250/  7/  8 1009.7F
RAPPAHANNOCK LGT 2200          180/ 11/ 12 1011.2S
STINGRAY PT      2200   85 85  180/ 12/ 16 1010.8F   1/ 3
YORK RVR RNG VA  2200   85     140/ 13/ 14 1010.1F
YORKTOWN VA      2200   89 85  260/  5/  5 1010.3F
JAMESTOWN VA     2300   89 87  210/  2/  4   N/A
DOMINION TERM VA 2200   89     320/  3/  4 1010.5F
KIPTOPEKE VA     2200      84  170/ 15/ 17   N/A
CHES BAY BRIDGE  2200   85 83   90/  6/ 10 1010.4F
CAPE HENRY VA    2200   83     140/ 11/ 19   N/A
CHESAPEAKE LGHT  2200   81     160/ 16/ 17 1011.6S
WILLOUBY STN VA  2200   87     110/  2/  3 1011.7F
CAPE HENRY BUOY  2228      82                N/A     3/ 8   2/12
1ST LANDING BUOY 2300      82              1010.5F   2/ 4
CAPE CHARLES BUO 2226      77                N/A     3/ 4   2/11
OFFSHORE WE BUOY 2211      82                N/A     4/ 7   2/ 7
64NM E OF VA BCH 2250   80 82  180/ 14/ 16 1011.5R   4/ 6   2/ 7
DUCK PIER NC     2200   82 80  130/ 12/ 13 1010.4F
44100 DUCK FRF   2224      81                N/A     3/ 8   2/13
44056 DUCK FRF   2211      80                N/A     3/ 6
OREGON INLET NC  2200   82 84  180/ 11/ 12 1011.7R
HATTERAS NC      2200   83 81  220/  8/ 12 1011.6S
DIAMOND SHLS NC  2250   83 85  230/ 12/ 16 1012.0F   3/ 8   2/ 8



USA.gov is the U.S. government's official web portal to all federal, state and local government web resources and services.